Overview Statistics Trail Chart Weather Telemetry Raw packets
 

This is the latest recevied weather packets stored in our database for station/object W6TKD-13. If no packets are shown the sender has not sent any weather packets the latest 10 day(s).

<< 16 17 18 19 20 21 22 >>
Time Temp. Humidity Pressure Rain* Wind** Luminosity Snow
1787895247 23.33° C 22% 1015.3 hPa 0 mm - - -
1787894581 23.89° C 22% 1015.3 hPa 0 mm - - -
1787893913 24.44° C 22% 1015.4 hPa 0 mm - - -
1787893247 24.44° C 21% 1015.5 hPa 0 mm - - -
1787892580 25° C 21% 1015.5 hPa 0 mm - - -
1787891912 25° C 21% 1015.7 hPa 0 mm - - -
1787891246 25.56° C 20% 1015.7 hPa 0 mm - - -
1787890579 26.11° C 20% 1015.7 hPa 0 mm - - -
1787889919 26.11° C 20% 1015.7 hPa 0 mm - - -
1787889244 26.67° C 20% 1015.6 hPa 0 mm - - -
1787888577 27.22° C 19% 1015.6 hPa 0 mm - - -
1787887911 27.22° C 18% 1015.6 hPa 0 mm - - -
1787887244 27.78° C 18% 1015.4 hPa 0 mm - - -
1787886578 28.33° C 18% 1015.4 hPa 0 mm - - -
1787885910 28.89° C 17% 1015.3 hPa 0 mm - - -
1787884577 30° C 16% 1015.1 hPa 0 mm - - -
1787883909 30° C 16% 1015.2 hPa 0 mm - - -
1787883242 30.56° C 16% 1015.4 hPa 0 mm - - -
1787882575 31.11° C 16% 1015.4 hPa 0 mm - - -
1787881241 32.22° C 15% 1015.5 hPa 0 mm - - -
1787879907 32.78° C 14% 1015.7 hPa 0 mm - - -
1787879240 33.33° C 14% 1015.7 hPa 0 mm - - -
1787877908 34.44° C 13% 1015.6 hPa 0 mm - - -
1787877239 35° C 12% 1015.5 hPa 0 mm - - -
1787876572 36.11° C 12% 1015.4 hPa 0 mm - - -

* Rain since midnight (hover to see other rain measurements)
** Current wind speed in m/s (hover to see current wind gust speed)